Weather Roundup
Issued by NWS

Home | Current Version | Previous Version | Text Only | Print | Product List | Glossary On
Versions: 1 2 3 4 5 6 7 8 9 10 11 12 13 14 15 16 17 18 19 20 21 22 23 24 25 26 27 28 29 30 31 32 33 34 35 36 37 38 39 40 41 42 43 44 45 46 47 48 49 50
000
NZUS93 KARX 302010
HRRWXR

CURRENT HOURLY OBSERVATIONS ACROSS
MUCH OF THE UPPER MISSISSIPPI VALLEY
NATIONAL WEATHER SERVICE LA CROSSE WI
300 PM CDT THU OCT 30 2014


...SOUTHEAST MINNESOTA...


CITY           SKY/WX    TMP DP  RH WIND       PRES   REMARKS
ROCHESTER      CLOUDY    47  37  68 N8        30.07S
ROCHESTER/MAYO CLOUDY    45  37  72 NW3       30.07S
WINONA         CLOUDY    48  41  76 CALM      30.07S
AUSTIN         CLOUDY    48  37  66 CALM      30.06S
ALBERT LEA     CLOUDY    52  36  54 CALM      30.06S
DODGE CENTER   CLOUDY    46  39  76 N6        30.07S
PRESTON        CLOUDY    47  37  69 NW3       30.06S
OWATONNA       SUNNY     48  37  66 N9        30.08S
FARIBAULT      CLOUDY    46  37  71 N6        30.09S
$$

...ELSEWHERE IN MINNESOTA...


CITY           SKY/WX    TMP DP  RH WIND       PRES   REMARKS
MINNEAPOLIS    CLOUDY    48  35  60 N9        30.10S
INTNL FALLS    LGT SNOW  34  32  92 NW18G25   30.15R FOG     WCI  23
DULUTH         CLOUDY    41  31  67 NW15      30.07S
RED WING       CLOUDY    48  37  66 W6        30.07F
REDWOOD FALLS  CLOUDY    48  39  71 N15G21    30.14R
MANKATO        CLOUDY    48  34  57 N12       30.10R
WORTHINGTON    PTSUNNY   52  37  58 N20G25    30.12R
FAIRMONT       CLOUDY    55  25  30 N18       30.08R
$$

...SOUTHWEST WISCONSIN...


CITY           SKY/WX    TMP DP  RH WIND       PRES   REMARKS
LA CROSSE      CLOUDY    47  37  68 S3        30.07S
PRAIRIE DU CHI CLOUDY    48  36  61 CALM      30.06S
BOSCOBEL       CLOUDY    50  36  58 CALM      30.07S
LONE ROCK      CLOUDY    53  36  52 W6        30.06F
PLATTEVILLE    CLOUDY    49  37  63 CALM      30.06S
FORT MC COY    CLOUDY    47  35  64 SW3       30.07S
CAMP DOUGLAS   PTSUNNY   50  37  62 W12       30.05S
VIROQUA        CLOUDY    44  36  73 CALM      30.06S
WIS DELLS      CLOUDY    47  34  60 W6        30.05S
$$

...ELSEWHERE IN WISCONSIN...


CITY           SKY/WX    TMP DP  RH WIND       PRES   REMARKS
MILWAUKEE      PTSUNNY   51  32  48 W9        30.04F
MADISON        CLOUDY    50  35  56 NW7       30.05S
GREEN BAY      CLOUDY    47  35  63 W12       30.02F
EAU CLAIRE     CLOUDY    48  33  56 N5        30.07S
BLACK RVR FLS  CLOUDY    51  35  53 W7        30.05S
MEDFORD        CLOUDY    42  32  68 NW10G16   30.03F
WAUSAU         CLOUDY    45  33  63 W12       30.01F
WIS RAPIDS     CLOUDY    50  35  56 W6        30.04F
MARSHFIELD     CLOUDY    47  35  63 NW8       30.03F
RICE LAKE      CLOUDY    43  33  69 NW6       30.09S
$$

...NORTHEAST IOWA...


CITY           SKY/WX    TMP DP  RH WIND       PRES   REMARKS
DECORAH        CLOUDY    46  39  76 CALM      30.05F
MASON CITY     CLOUDY    53  38  56 N7        30.06S
CHARLES CITY   CLOUDY    50  37  62 CALM      30.05F
OELWEIN        CLOUDY    52  36  54 CALM      30.05S
$$

...ELSEWHERE IN IOWA...


CITY           SKY/WX    TMP DP  RH WIND       PRES   REMARKS
DES MOINES     MOSUNNY   63  39  41 NE6       30.00F
IOWA CITY      SUNNY     56  37  49 E7        30.04S
FORT DODGE     SUNNY     55  37  50 N7        30.04S
$$

...NORTHERN ILLINOIS...


CITY           SKY/WX    TMP DP  RH WIND       PRES   REMARKS
CHICAGO-OHARE  CLOUDY    50  34  54 W12       30.05F
CHICAGO-MIDWAY CLOUDY    52  36  54 SW9       30.06F
MOLINE         CLOUDY    50  38  63 SE7       30.04F
ROCKFORD       CLOUDY    51  36  56 W6        30.07F
PEORIA         CLOUDY    50  39  66 E5        30.06F
$$

NOTE: "FAIR" INDICATES FEW OR NO CLOUDS BELOW 12,000 FEET WITH NO
SIGNIFICANT WEATHER AND/OR OBSTRUCTIONS TO VISIBILITY. WIND
SPEEDS ARE IN MILES-PER-HOUR.



USA.gov is the U.S. government's official web portal to all federal, state and local government web resources and services.